Regional Weather Roundup
Issued by NWS Albany, NY

Home | Current Version | Previous Version | Text Only | Print | Product List | Glossary On
Versions: 1 2 3 4 5 6 7 8 9 10 11 12 13 14 15 16 17 18 19 20 21 22 23 24 25 26 27 28 29 30 31 32 33 34 35 36 37 38 39 40 41 42 43 44 45 46 47
000
ASUS41 KALY 280210
RWRALY

NEW YORK STATE HOURLY WEATHER ROUNDUP
NATIONAL WEATHER SERVICE ALBANY NY
900 PM EST TUE JAN 27 2015

NOTE: "FAIR" INDICATES FEW OR NO CLOUDS BELOW 12,000 FEET WITH NO
SIGNIFICANT WEATHER AND/OR NO OBSTRUCTIONS TO VISIBILITY.

NYZ032-033-038>043-046>054-057>066-NYZ062>081-280300-
EAST


CITY           SKY/WX    TMP DP  RH WIND       PRES   REMARKS
ALBANY         FLURRIES  12   2  64 N10       29.88R WCI  -1
GLENS FALLS    CLOUDY    13   1  59 N18G24    29.88S WCI  -4
POUGHKEEPSIE   CLOUDY    15   4  61 N13       29.82R WCI   1
NEWBURGH       CLOUDY    14   9  79 VRB5      29.79R WCI   6
MONTGOMERY     CLOUDY    14   8  77 NE7       29.79R WCI   4
WHITE PLAINS   CLOUDY    17   8  67 NW16G23   29.74R WCI   2
ISLIP          FLURRIES  20  10  65 N26G36    29.72R WCI   2
NEW YORK CITY  CLOUDY    23  14  68 NW10      29.78R WCI  12
CENTRAL PARK   CLOUDY    24   9  52 NW12G20   29.79R WCI  13
$$

NYZ005>009-017-018-044>046-055-056-280300-
CENTRAL


CITY           SKY/WX    TMP DP  RH WIND       PRES   REMARKS
FULTON         PTCLDY    14  -3  47 N10       30.04S WCI   1
SYRACUSE       MOCLDY    10  -5  50 NW8       30.04S WCI  -2
ROME           CLOUDY    11  -5  48 NW10G18   30.01R WCI  -3
ELMIRA         PTCLDY    14   2  58 N5        30.00R WCI   6
BINGHAMTON     PTCLDY     7  -3  64 N22G29    29.85R WCI -14
MONTICELLO     CLOUDY    10   3  72 NW18G24   29.75R WCI  -8
$$

NYZ026>034-041>043-280300-
NORTH


CITY           SKY/WX    TMP DP  RH WIND       PRES   REMARKS
WATERTOWN      MOCLDY     3  -6  66 CALM      30.06F
FORT DRUM      NOT AVBL
MASSENA        MOCLDY    11  -2  56 NW7       30.04F WCI   0
SARANAC LAKE   CLOUDY     5  -7  57 VRB6      29.84F WCI  -6
PLATTSBURGH    CLOUDY    12   0  58 N13       29.97F WCI  -3
$$

NYZ001>004-010>016-019>021-280300-
WEST


CITY           SKY/WX    TMP DP  RH WIND       PRES   REMARKS
NIAGARA FALLS  CLEAR     14   2  58 N6        30.10S WCI   5
BUFFALO        PTCLDY    14   5  67 W5        30.08S WCI   6
DUNKIRK        PTCLDY     2  -1  88 SW5       30.11S WCI  -8
JAMESTOWN      PTCLDY    10   3  72 N7        30.00S WCI   0
WELLSVILLE     PTCLDY     8   0  69 NW9       29.94R WCI  -5
ROCHESTER      PTCLDY     9   1  70 CALM      30.07R
PENN YAN       PTCLDY    11   0  61 NW5       30.02R WCI   3
$$

             KEY
       WCI = WIND CHILL INDEX
       VSB = VISIBILITY
       HX  = HEAT INDEX
$$



USA.gov is the U.S. government's official web portal to all federal, state and local government web resources and services.